カタログに戻る

JILIN-1 GAOFEN 03D-54

運用中科学PO
NORAD 54255·PAYLOAD·🇨🇳 China
この衛星名は、まだ公式ソースで確認されていません。

打ち上げ Nov 16, 2022 から Jiuquan Satellite Launch Center

Loading…

次のパス (今後24時間)

TLE

最新Source: Space-Track

元期: Sep 14, 2026, 15:13 UTC

1 54255U 22155E   26257.63420712  .00055317  00000-0  50108-3 0  9991
2 54255  97.6315  47.8783 0003085  45.3162 314.8349 15.67892275213682

AllMySatでJILIN-1 GAOFEN 03D-54をリアルタイム追跡

Download on the App Store